#timestamp,LO_Frequency,Hit 
1505937615.4,286047002.4,N
1505937635.2,286047002.7,N
1505937655.0,286047002.7,N
1505937655.9,286047002.7,N
1505937675.8,286047000.5,N
1505937695.6,286047002.3,N
1505937715.4,286047001.5,N
1505937735.3,286047004.0,N
1505937755.1,286047001.5,N
1505937756.0,286047001.5,N
1505937775.8,286047001.4,N
1505937795.7,286046998.2,N
1505937815.5,286047000.3,N
1505937835.3,286047002.8,N
1505937855.1,286047001.5,N
1505937875.9,286047003.5,N
1505937895.7,286047003.9,N
1505937915.5,286047002.3,N
1505937935.4,286047001.4,N
1505937955.2,286047001.5,N
1505937975.0,286047003.7,N
1505937975.9,286047003.7,N
1505937995.8,286047005.4,P
1505938015.6,286047003.5,N
1505938035.4,286047003.7,N
1505938055.3,286047003.8,N
1505938075.1,286047004.3,P
1505938095.8,286046998.5,P
1505938115.7,286047000.0,N
1505938135.5,286047000.6,N
1505938155.3,286047000.4,N
1505938175.2,286047000.0,N
1505938195.9,286046999.8,N
1505938215.7,286047002.5,N
1505938235.6,286047001.2,N
1505938255.4,286047000.6,N
1505938275.2,286047000.0,N
1505938295.1,286046999.9,N
1505938296.0,286046999.9,N
1505938315.8,286047000.0,N
1505938335.6,286047002.6,N
1505938355.4,286047000.1,N
1505938375.3,286047002.7,N
1505938395.1,286047002.5,N
1505938415.8,286047001.5,N
1505938435.7,286047001.7,N
1505938455.5,286047003.5,N
1505938475.3,286047003.0,N
1505938495.2,286047003.4,N
1505938515.9,286047003.0,N
1505938535.7,286047005.2,P
1505938555.6,286047001.3,N
1505938575.4,286047001.3,N
1505938595.2,286047001.9,N
1505938615.1,286046999.9,N
1505938616.0,286046999.9,N
1505938635.8,286047001.7,N
1505938655.6,286047005.2,P
1505938675.5,286047001.7,N
1505938695.3,286047002.0,N
1505938715.1,286047004.4,N
1505938735.9,286047003.9,N
1505938755.7,286047003.4,N
1505938775.5,286047002.2,N
1505938795.4,286047002.6,N
1505938815.2,286047004.4,P
1505938835.0,286047001.1,N
1505938835.9,286047001.1,N
1505938855.8,286047000.2,N
1505938875.6,286047001.5,N
1505938895.4,286047002.0,N
1505938915.3,286047001.7,N
1505938935.1,286047003.8,P
1505938955.8,286047002.4,N
1505938975.7,286047002.8,P
1505938995.5,286047000.6,N
1505939015.3,286046995.3,P
1505939035.2,286046992.5,N
1505939055.9,286046991.9,N
1505939075.7,286046992.4,N
1505939095.6,286046992.2,N
1505939115.4,286046994.8,N
1505939135.2,286046994.2,N
1505939155.1,286046994.0,N
1505939156.0,286046994.0,N
1505939175.8,286046993.6,N
1505939195.6,286046994.1,N
1505939215.5,286046993.5,N
1505939235.3,286046995.1,N
1505939255.1,286046995.7,N
1505939275.8,286046997.7,N
1505939295.7,286046997.0,N
1505939315.5,286046998.8,N
1505939335.3,286046998.9,N
1505939355.2,286046998.9,N
1505939375.9,286046999.1,N
1505939395.7,286046997.4,N
1505939415.6,286046997.0,N
1505939435.4,286046996.5,N
1505939455.2,286046997.1,N
1505939475.0,286046997.7,N
1505939476.0,286046997.7,N
1505939495.8,286046994.9,N
1505939515.6,286046995.4,N
1505939535.4,286046996.7,N
1505939555.3,286046996.7,N
1505939575.1,286046995.5,N
1505939595.8,286046999.5,N
1505939615.7,286046997.5,N
1505939635.5,286046996.1,N
1505939655.3,286046996.4,N
1505939675.2,286046995.2,N
1505939695.9,286046997.5,N
1505939715.7,286046997.4,N
1505939735.6,286046996.8,N
1505939755.4,286046997.9,N
1505939775.2,286046997.0,N
1505939795.0,286046996.9,N
1505939796.0,286046996.9,N
1505939815.8,286046997.0,N
1505939835.6,286046997.6,N
1505939855.5,286046995.7,P
1505939875.3,286047001.0,N
1505939895.1,286047001.4,N
1505939915.9,286046999.8,N
1505939935.7,286047000.5,N
1505939955.5,286047000.1,N
1505939975.3,286047000.5,N
1505939995.2,286047001.0,N
1505940015.0,286047000.2,N
1505940015.9,286047000.2,N
1505940035.7,286047001.7,N
1505940055.6,286047003.5,N
1505940075.4,286047003.0,N
1505940095.2,286047003.2,N
1505940115.1,286047001.5,N
1505940116.0,286047001.5,N
1505940135.8,286047001.8,N
1505940155.6,286047002.6,N
1505940175.5,286046999.7,N
1505940195.3,286047000.5,N
1505940215.1,286046999.5,N
1505940235.9,286047002.4,N
1505940255.7,286047003.8,N
1505940275.5,286047003.8,N
1505940295.3,286047001.4,N
1505940315.2,286047003.8,N
1505940335.0,286047002.9,N
1505940335.9,286047002.9,N
1505940355.8,286047005.8,P
1505940375.6,286047001.6,N
1505940395.4,286047003.4,N
1505940415.2,286047003.3,N
1505940435.1,286047005.8,P
1505940436.0,286047005.8,P
1505940455.8,286047002.1,N
1505940475.7,286047001.4,N
1505940495.5,286047002.5,N
1505940515.3,286047002.5,N
1505940535.1,286047002.1,N
1505940555.9,286047002.4,N
1505940575.7,286047004.2,N
1505940595.5,286047004.1,N
1505940615.4,286047001.3,N
1505940635.2,286047004.3,N
1505940655.0,286047003.3,N
1505940655.9,286047003.3,N
1505940675.8,286047004.2,P
1505940695.6,286046996.5,P
1505940715.4,286046998.5,N
1505940735.3,286047001.2,N
1505940755.1,286046998.2,N
1505940756.0,286046998.2,N
1505940775.8,286046998.3,N
1505940795.7,286046996.7,N
1505940815.5,286046999.5,N
1505940835.3,286047001.2,N
1505940855.2,286047001.1,N
1505940875.9,286047001.2,N
1505940895.7,286046998.4,N
1505940915.5,286047001.2,N
1505940935.4,286046998.1,N
1505940955.2,286046998.6,N
1505940975.0,286047001.2,N
1505940975.9,286047001.2,N
1505940995.8,286046998.7,N
1505941015.6,286046996.9,N
1505941035.4,286046999.2,N
1505941055.3,286047002.3,N
1505941075.1,286047002.9,N
1505941076.0,286047002.9,N
1505941095.8,286047001.8,N
1505941115.7,286046998.3,N
1505941135.5,286046998.1,N
1505941155.3,286047000.8,N
1505941175.2,286047000.4,N
1505941195.9,286046998.7,N
